RH
65 67 69 74 75 75 75 76 76 76 75 74 74 76 74 67 63 84 92 87 93 97 91 72 67 82 86 87 97 86 88 94 96 95 96 96 92 74 82 64 65 76 90 98 96 96 95 67 64 74 69 88 84 80
77 75 77 77 77 78 78 77 77 76 76 75 75 76 74 70 65 75 87 83 84 94 90 82 72 68 73 75 86 91 83 89 95 96 98 94 95 91 93 95 62 91 92 96 92 94 81 89 84 65 68 71 82 75
74 74 74 76 82 86 83 80 79 78 77 77 76 76 73 71 66 75 97 94 95 98 93 87 80 61 57 64 64 91 87 77 86 88 98 97 99 93 93 71 78 57 52 92 89 85 88 88 81 72 68 73 66 72
81 82 82 83 82 74 79 83 84 81 78 76 76 76 74 74 68 71 92 95 95 96 99 82 49 63 53 56 67 71 68 69 77 86 91 93 94 79 93 82 76 68 68 86 98 84 74 81 72 58 46 48 49 48
79 80 86 86 88 89 88 83 81 82 82 80 75 73 72 73 71 86 97 97 95 94 98 90 65 48 46 52 59 63 71 82 95 93 97 95 90 83 74 72 77 61 89 98 98 66 71 53 45 43 48 42 42 47
77 83 88 86 87 90 90 89 86 81 84 84 80 71 65 73 74 95 97 90 97 98 99 98 78 71 54 60 69 75 71 87 90 94 94 96 76 84 99 92 51 44 47 71 60 55 62 59 52 47 44 42 39 39
78 84 89 85 86 87 86 88 84 80 83 88 88 75 70 76 94 89 88 87 85 97 91 95 95 70 58 69 86 87 83 89 92 94 95 83 82 80 89 89 56 50 50 51 51 71 72 66 74 61 60 47 43 36
80 80 89 89 88 88 89 86 81 82 88 92 78 71 74 75 82 90 90 75 85 95 98 100 93 83 67 88 99 98 99 95 99 97 97 95 91 98 97 68 54 70 79 76 84 79 83 79 73 65 59 49 40 43
85 86 83 90 90 89 88 89 90 90 82 73 74 76 90 94 98 91 75 75 96 92 99 99 97 93 81 93 97 99 100 99 95 94 97 95 96 95 74 64 82 89 86 79 74 70 76 85 83 82 60 44 46 49
85 84 85 87 88 88 86 83 78 76 76 75 85 95 98 93 72 81 90 95 100 100 100 98 84 85 70 76 93 98 98 99 98 90 91 96 85 64 73 87 95 85 84 77 85 89 86 89 96 93 92 91 91 91
85 84 81 79 79 79 79 79 79 78 74 89 98 97 91 83 91 98 99 100 96 97 94 90 81 83 81 96 95 93 96 98 98 99 98 96 96 98 86 89 91 94 92 82 79 78 83 90 94 97 95 96 96 97
80 83 84 83 82 80 80 80 77 86 90 85 90 91 94 98 100 98 95 94 96 82 86 96 92 96 93 88 98 96 98 94 95 98 97 97 97 83 80 84 86 88 90 89 80 85 90 92 95 96 96 96 96 93
83 84 84 84 84 81 81 79 81 83 89 87 93 99 94 94 98 97 96 91 97 97 98 99 98 100 100 99 98 99 93 93 93 95 96 98 91 79 78 91 80 75 75 88 87 87 88 93 90 97 98 97 99 99
81 81 82 81 80 80 80 79 81 87 96 97 99 98 97 97 96 96 94 92 94 99 98 97 99 100 99 99 99 99 86 92 93 90 93 99 97 86 79 77 73 77 88 89 88 93 97 98 98 98 99 99 99 99
83 81 81 83 84 84 82 82 82 95 96 94 99 98 99 90 97 99 99 99 96 97 99 98 97 98 97 95 97 88 87 94 92 98 99 100 97 98 95 90 91 93 91 93 97 96 98 96 97 98 98 99 99 99
82 82 90 85 86 85 88 89 93 96 98 97 94 96 97 98 98 98 97 98 92 96 95 99 99 96 90 93 89 89 81 92 98 99 99 98 98 98 98 96 97 97 82 85 89 94 98 99 99 98 95 97 99 99
80 90 82 82 84 87 88 93 99 99 94 83 91 98 97 92 92 96 95 83 87 98 98 98 100 94 98 98 96 97 98 99 99 98 97 94 99 99 97 93 96 96 94 91 88 85 91 97 98 95 96 94 95 98
90 88 73 74 88 92 98 94 99 95 95 85 98 95 97 96 96 96 95 87 90 99 95 97 98 99 97 92 99 99 99 99 99 97 99 98 98 99 99 99 97 95 95 93 92 92 93 94 97 98 96 87 91 94
89 92 84 79 82 92 85 98 98 96 89 96 97 98 97 96 96 96 93 83 87 90 99 97 97 96 98 98 98 99 99 99 96 95 96 92 93 96 96 94 94 93 95 95 92 92 94 93 95 97 98 87 91 97
87 86 87 82 80 93 90 92 94 99 99 90 92 96 97 95 96 99 94 93 95 98 99 97 98 96 98 99 99 100 100 98 94 85 91 96 93 85 95 97 96 94 98 98 97 97 96 94 94 97 99 98 96 92
76 80 82 83 84 86 87 87 89 94 90 91 84 90 90 97 100 100 99 98 98 90 93 97 95 99 99 99 99 100 99 87 97 97 98 96 91 93 90 91 96 94 97 96 97 98 98 97 98 98 99 100 99 97
82 70 84 85 83 78 93 84 85 82 80 81 84 81 93 91 94 97 97 96 98 98 98 99 99 99 99 99 99 97 88 85 87 91 93 93 95 94 95 96 91 92 92 93 96 98 98 96 98 98 98 98 99 99
76 73 77 78 86 83 82 81 76 75 85 85 83 75 83 85 85 88 91 97 97 98 98 96 98 99 99 98 91 86 83 85 90 90 84 88 94 95 96 94 90 95 94 89 90 88 98 99 97 98 98 98 99 99
68 73 81 88 84 86 89 94 86 78 78 72 77 75 75 83 84 86 87 95 97 94 93 96 95 95 94 89 92 91 84 78 81 82 85 91 91 88 87 88 88 89 92 89 94 97 94 98 99 98 96 98 98 99
82 80 94 92 91 92 87 92 88 79 88 87 81 90 88 89 93 94 95 96 96 96 95 91 88 89 86 84 81 82 77 87 87 85 77 80 87 87 84 82 84 88 96 97 92 91 93 95 95 93 90 96 98 99
91 84 91 85 85 78 80 84 86 88 92 91 90 86 94 95 96 95 92 97 98 96 97 96 93 87 81 81 88 88 88 82 86 89 80 81 80 92 96 94 93 88 93 95 97 96 95 94 96 94 86 85 91 98
88 92 87 76 70 69 86 86 76 89 88 95 96 94 95 99 97 96 97 96 96 96 92 85 86 89 87 84 82 83 86 87 92 94 80 73 80 82 92 95 95 92 92 96 96 95 95 95 94 95 95 87 87 92
86 84 87 89 84 82 90 96 92 91 97 91 87 98 100 96 98 98 97 96 95 82 81 81 82 86 86 86 89 94 87 90 92 85 74 90 92 88 96 90 90 88 90 90 93 95 95 94 96 96 97 96 90 91
91 89 82 89 93 95 94 92 98 92 92 94 98 97 96 94 97 97 96 97 96 94 95 97 97 98 96 94 96 98 90 97 94 92 91 90 87 86 84 91 90 89 91 90 86 89 92 94 96 96 96 97 96 99
86 90 92 93 94 96 95 96 98 95 98 94 92 92 90 97 97 94 94 93 93 95 96 96 96 99 97 97 96 97 94 97 98 98 96 94 93 90 91 92 92 92 92 92 92 92 89 91 92 93 95 98 98 98
95 96 93 95 94 91 93 96 96 93 97 99 99 96 95 96 97 98 98 97 97 97 96 91 91 91 98 98 96 95 90 90 98 96 96 95 93 93 92 92 92 94 94 94 94 94 94 94 95 96 96 97 97 97
93 91 92 95 97 93 92 87 96 97 96 98 99 97 96 97 97 98 98 98 96 92 94 96 95 94 94 95 96 100 99 90 94 91 94 93 93 93 93 92 93 95 94 94 94 95 96 96 96 96 98 97 96 96
93 95 94 95 92 90 90 90 95 91 97 100 96 97 98 97 97 97 98 98 98 100 100 99 87 88 87 88 94 92 90 88 93 92 95 92 93 93 94 94 96 96 95 95 95 96 96 96 96 97 97 96 96 96
Wind_Speed
9 9 11 12 12 14 15 16 16 16 16 15 14 13 13 11 9 4 4 3 4 3 5 6 7 7 4 4 4 4 6 2 1 4 1 2 4 3 3 6 9 6 5 3 3 4 6 5 6 1 3 3 5 3
10 12 14 16 17 19 20 20 20 19 18 16 15 14 13 13 11 8 3 3 2 2 5 2 8 13 11 14 6 4 6 1 3 1 2 3 3 4 3 4 3 4 2 4 7 3 3 3 12 11 3 4 6 4
8 11 13 15 18 22 24 23 23 22 21 19 18 16 16 16 13 8 3 1 3 3 6 3 9 13 11 15 14 6 3 6 5 5 3 3 4 2 4 6 6 6 11 6 11 4 5 6 10 18 8 7 5 8
10 13 16 18 21 23 23 23 26 25 22 21 20 18 16 15 13 9 3 2 3 2 4 7 5 6 6 6 9 14 16 4 4 3 3 4 4 4 4 8 13 10 9 7 6 15 14 12 14 15 6 7 6 6
15 17 15 14 18 22 24 24 23 23 25 24 20 18 15 14 12 4 2 4 4 5 4 7 10 19 15 15 16 12 12 6 3 3 4 4 4 5 7 9 9 5 6 4 3 16 12 8 6 5 6 7 5 6
20 17 12 10 13 9 13 18 22 19 23 24 20 16 12 13 9 4 3 2 5 4 4 4 5 10 11 7 9 8 9 6 5 5 4 4 6 4 4 4 10 11 12 8 13 14 13 8 4 5 6 10 9 8
22 19 14 10 14 14 10 14 16 14 20 23 19 15 16 13 4 4 6 4 5 3 2 6 5 6 5 2 3 4 2 4 5 4 5 6 5 4 5 15 24 19 21 20 12 7 7 8 9 13 13 13 9 7
21 22 19 18 19 18 19 18 14 18 23 22 18 15 13 12 3 4 4 8 3 1 2 4 6 5 2 1 0 1 2 3 3 3 3 4 2 5 7 10 10 11 11 7 10 7 7 11 10 12 11 8 6 7
20 23 24 23 24 25 25 26 28 27 24 19 13 12 5 3 2 5 4 4 3 4 3 3 2 5 2 1 2 2 2 3 3 6 4 4 3 7 9 7 4 5 5 8 9 8 10 10 11 12 8 9 1 3
17 17 20 22 23 24 26 25 21 19 19 18 5 4 3 4 5 6 4 1 3 3 4 5 3 7 4 4 3 2 3 4 3 6 4 5 6 12 12 4 3 5 9 10 10 13 14 14 13 12 8 6 6 6
14 13 15 17 17 16 17 17 18 18 8 3 2 2 4 4 2 0 3 3 2 3 4 4 6 7 3 3 3 3 3 3 3 5 4 4 2 3 4 4 4 6 7 8 8 8 8 10 10 8 8 8 8 8
12 11 11 10 11 13 14 15 13 3 1 4 4 2 1 0 1 2 3 2 4 4 4 4 4 5 4 2 4 3 4 3 3 3 1 1 3 6 7 8 7 7 10 11 9 10 11 11 11 9 7 8 7 7
7 7 7 7 6 6 8 13 5 9 6 2 2 1 1 4 1 3 3 3 3 3 2 3 6 3 2 3 3 2 2 4 1 4 1 1 4 7 7 6 8 10 11 9 8 8 9 10 10 8 6 6 5 5
4 3 3 3 4 3 2 3 6 5 2 0 2 3 4 3 5 5 4 3 3 4 6 6 4 2 1 2 1 1 4 2 4 2 2 1 3 4 4 5 8 10 8 9 8 6 9 8 7 6 5 5 4 5
3 4 4 6 7 7 6 3 3 3 1 2 2 4 6 5 2 3 5 4 4 4 3 4 3 2 2 1 2 2 5 3 0 3 3 3 4 5 6 6 7 6 6 7 8 5 6 9 7 6 5 5 4 3
8 7 5 8 8 7 7 2 2 1 2 2 4 4 3 2 4 3 2 3 3 4 4 0 2 2 4 3 1 4 2 2 3 1 3 3 3 4 5 5 6 5 8 6 6 7 6 5 5 5 5 4 4 4
7 3 1 5 4 4 8 2 0 2 2 4 5 4 4 4 5 4 2 5 2 3 2 1 2 3 2 2 3 1 2 2 1 3 2 3 4 3 4 5 5 4 5 6 5 7 7 5 5 5 6 3 3 2
3 1 3 1 3 4 1 3 3 4 6 6 4 5 3 4 3 2 2 1 2 2 2 2 3 3 3 3 2 2 3 2 1 3 3 4 7 4 3 5 6 5 4 5 5 5 4 5 7 5 6 2 1 1
6 6 9 7 2 2 3 4 3 4 7 3 4 2 3 3 3 2 2 3 2 3 2 2 4 3 2 1 1 1 1 1 2 3 3 4 6 6 6 6 6 5 5 5 5 4 4 5 4 5 5 3 3 2
16 15 13 9 6 2 4 3 4 4 4 4 1 2 3 4 3 2 4 3 2 1 3 3 4 1 1 1 0 0 1 1 2 4 3 3 4 9 8 7 6 7 5 6 4 4 4 4 3 3 4 4 3 4
6 2 6 6 2 4 3 3 4 4 3 2 2 2 3 0 2 2 2 2 2 4 3 3 2 2 4 3 2 1 1 3 2 2 2 4 6 6 6 6 5 7 7 7 6 6 5 4 5 5 5 6 4 4
3 4 3 2 3 3 4 3 3 4 2 4 4 2 2 2 3 3 3 2 0 4 5 4 2 3 1 2 4 7 5 6 6 4 4 4 6 7 7 6 7 8 7 7 8 8 7 4 4 5 6 6 5 3
4 2 0 1 2 2 7 3 2 3 2 4 4 3 3 3 3 2 3 3 3 4 7 7 13 9 7 9 9 10 10 7 5 5 6 5 4 4 4 5 6 6 7 7 6 8 9 6 4 5 5 6 4 4
2 2 2 1 3 5 3 3 2 3 3 4 3 5 4 3 3 1 3 4 2 4 7 10 7 5 5 8 7 7 8 6 5 5 6 7 8 8 7 7 7 7 7 7 7 5 8 8 5 5 6 7 6 5
4 4 5 4 3 2 3 5 4 3 2 3 3 5 4 3 2 3 4 3 3 5 6 6 6 7 6 5 5 5 8 7 7 8 7 7 7 8 8 8 8 7 6 6 8 9 9 8 7 7 8 8 8 7
1 4 4 4 3 2 3 3 2 3 2 3 5 4 3 3 4 4 3 3 2 4 4 5 5 6 6 7 7 7 8 7 7 6 7 7 7 8 7 8 9 8 6 8 7 9 10 8 9 10 10 12 11 10
1 3 1 1 0 1 4 3 3 1 2 3 3 4 3 3 2 3 2 4 3 5 5 6 6 6 6 6 5 6 6 6 5 6 7 8 6 5 5 8 11 9 11 12 9 9 11 11 11 10 9 9 10 10
4 1 2 3 2 0 3 2 2 2 2 3 4 3 2 1 1 2 3 3 3 4 4 4 5 4 5 5 5 5 6 6 5 5 7 3 3 5 3 5 7 14 10 10 11 10 10 11 11 10 9 9 10 10
2 1 3 3 3 2 3 4 1 1 3 2 3 3 1 4 3 3 3 1 2 3 3 3 4 3 3 4 4 2 5 4 9 14 14 12 12 7 9 8 8 8 9 11 17 14 13 12 12 11 11 8 8 3
3 1 3 1 3 3 4 3 3 4 2 4 3 5 3 2 4 2 2 3 4 4 4 4 5 2 4 6 6 4 3 2 1 3 10 11 11 11 11 10 10 9 9 11 12 13 15 11 10 8 9 4 2 3
0 3 2 2 3 4 4 4 3 2 2 2 1 5 5 4 2 0 1 1 0 2 3 7 7 6 3 5 6 8 10 4 5 8 7 8 9 10 10 10 10 9 9 11 12 11 12 10 8 8 9 4 5 5
1 3 4 1 4 5 5 4 2 1 4 4 3 3 5 3 2 0 2 2 4 7 6 6 8 9 6 5 5 4 8 8 8 8 11 8 9 10 10 9 9 7 9 12 11 10 8 8 8 9 2 6 6 6
2 3 3 3 5 6 5 4 4 4 4 2 3 2 3 3 3 2 3 2 2 2 2 3 7 7 9 10 8 7 8 7 11 13 12 13 13 13 10 8 5 6 10 10 10 7 8 9 8 7 5 6 7 7
Wind_Direction
220 229 234 233 232 232 229 223 220 219 214 210 206 206 196 197 200 142 255 190 139 210 258 251 280 267 273 196 209 274 351 310 270 27 301 323 282 293 295 274 301 297 315 275 260 229 279 243 352 95 207 158 168 161
250 253 251 246 240 236 233 230 225 220 219 217 212 211 202 202 199 172 230 277 150 196 241 219 232 236 228 225 244 209 220 288 282 331 315 277 308 294 256 266 304 312 9 281 278 298 338 2 299 337 251 166 207 214
303 284 274 266 256 245 238 232 226 221 215 211 210 210 209 201 199 176 167 256 39 1 294 240 240 257 239 232 226 241 238 200 220 212 213 245 260 295 304 282 263 290 308 258 327 8 309 12 321 287 263 227 237 211
317 300 285 271 260 253 239 236 227 222 216 214 210 209 205 200 196 176 186 164 114 258 271 277 278 248 234 215 209 214 240 247 245 171 245 242 260 219 233 259 287 283 288 266 290 280 291 231 240 255 218 218 194 195
349 329 307 293 281 263 247 228 217 217 206 205 213 201 201 200 198 130 141 204 176 152 234 284 301 274 252 246 251 222 214 201 186 192 223 231 226 254 256 265 263 221 244 257 295 300 281 272 291 269 232 231 207 212
4 354 341 343 347 332 241 217 196 204 194 190 195 196 205 196 169 91 359 286 189 168 250 273 270 280 275 243 236 224 203 182 189 176 220 213 226 225 262 260 263 267 264 228 290 288 279 279 298 295 286 267 237 216
20 18 18 17 20 42 75 142 156 174 174 167 168 178 208 191 134 156 188 202 166 126 296 293 283 265 257 239 1 340 164 185 162 193 229 234 239 259 271 266 279 290 294 294 295 307 307 332 303 298 291 280 247 221
33 41 42 57 70 77 96 116 132 132 132 137 166 186 189 186 124 283 274 269 155 160 231 260 267 318 228 255 265 193 290 171 184 202 231 205 214 207 251 248 269 311 319 16 338 315 295 300 297 298 276 269 218 204
42 47 56 65 75 81 89 98 108 117 138 157 146 120 74 68 172 235 268 241 141 155 229 250 244 280 349 281 234 257 238 192 183 208 209 164 230 228 247 281 353 343 319 323 349 348 338 337 339 344 338 3 0 286
50 61 71 77 86 95 104 114 123 117 117 117 79 68 349 225 212 129 13 125 205 210 233 241 218 257 334 310 303 336 261 225 212 203 160 203 253 267 306 25 338 317 352 4 359 356 347 348 356 355 11 5 11 0
64 65 79 91 97 100 103 109 115 119 100 55 88 185 230 189 92 155 224 188 221 248 228 245 220 236 258 202 211 221 249 217 265 122 213 166 213 18 42 38 345 347 349 342 345 349 342 346 342 348 358 9 7 3
70 74 80 90 105 116 121 124 128 73 164 207 163 133 23 183 243 237 246 244 210 253 210 216 238 202 241 186 212 209 257 17 275 157 58 25 342 31 25 14 2 16 4 354 3 355 350 349 350 353 4 2 4 1
76 83 86 92 106 131 146 156 112 350 335 58 80 156 100 290 229 244 244 223 249 267 282 290 299 255 193 192 231 269 16 251 350 36 168 349 359 12 359 359 356 355 351 343 353 1 0 351 349 356 3 10 349 14
92 102 124 149 156 158 176 355 356 345 33 127 189 306 192 237 223 211 240 248 246 245 266 281 274 274 275 214 248 43 253 36 355 3 52 222 305 328 352 356 342 343 353 331 340 358 352 343 332 336 347 344 354 31
314 263 239 229 224 222 217 192 345 32 47 271 225 238 218 227 249 246 241 266 265 267 279 298 287 219 282 346 220 320 355 283 284 49 4 360 6 7 353 350 339 356 349 331 332 339 337 338 327 329 343 344 358 9
327 305 238 212 207 216 198 184 21 45 275 254 241 248 272 42 293 329 281 267 282 309 296 143 256 323 265 200 247 227 256 10 61 338 282 314 333 327 318 328 338 315 355 344 335 334 323 324 316 310 319 347 349 342
314 240 196 169 212 216 189 170 135 243 249 240 244 213 218 240 249 230 232 305 280 309 283 343 302 256 327 254 234 289 58 145 323 297 280 314 289 263 307 309 295 297 313 324 331 341 329 320 311 314 313 297 312 328
215 328 34 345 142 139 185 181 232 235 241 239 237 247 218 210 229 261 216 201 327 314 311 274 326 288 250 261 3 35 39 2 2 327 341 12 360 357 325 310 300 311 322 310 303 302 307 326 333 318 300 255 277 298
271 282 282 288 289 282 227 199 220 257 238 226 239 238 197 236 240 198 195 253 218 209 258 261 252 239 270 42 13 282 52 61 331 313 307 343 334 332 330 322 304 313 310 301 316 312 302 304 290 313 309 224 231 208
287 258 235 227 184 206 256 225 192 239 264 241 255 213 203 209 204 210 192 212 158 171 246 230 231 172 289 281 232 19 329 324 10 337 333 345 343 354 339 331 327 311 299 301 311 309 310 315 315 306 306 291 213 218
325 75 121 134 181 216 258 262 246 215 261 261 266 181 249 42 240 217 249 131 130 214 241 224 247 150 222 233 232 238 74 41 23 13 322 332 336 329 334 334 334 345 339 327 316 300 299 308 313 312 309 313 263 233
252 169 115 172 227 223 235 240 243 280 285 254 300 214 240 276 254 234 137 171 187 6 343 306 228 193 231 91 72 53 38 48 36 18 1 338 346 344 342 344 349 337 331 328 325 322 303 282 309 307 305 308 272 229
287 124 206 182 204 7 259 10 331 256 263 277 339 315 322 340 264 148 86 49 68 7 343 18 13 18 46 67 65 58 40 25 10 351 338 324 292 291 308 320 315 306 310 312 311 310 311 292 297 297 301 301 268 226
54 88 110 210 143 253 342 318 283 290 333 352 341 301 280 252 314 352 87 64 20 355 14 14 15 20 35 36 38 29 16 355 349 345 340 337 339 333 325 311 304 292 281 295 293 320 317 302 308 308 302 305 280 238
76 289 103 290 288 17 341 322 310 4 317 310 294 283 285 341 332 8 67 85 11 8 15 12 16 26 17 10 12 16 3 358 353 337 342 338 324 320 318 317 311 306 325 337 338 328 321 314 312 311 311 306 289 254
137 250 147 205 281 109 266 326 280 240 233 258 258 290 1 42 40 50 62 5 23 12 23 22 17 5 5 8 0 355 348 340 332 320 334 334 327 327 325 347 334 327 345 329 317 319 317 313 308 302 303 307 305 286
254 273 222 344 96 332 340 308 290 116 256 234 323 328 26 21 57 89 110 18 18 37 33 27 17 15 7 352 343 331 321 322 315 308 318 316 310 317 356 339 324 315 323 319 324 320 316 309 307 297 294 298 299 295
215 86 140 266 2 224 182 295 255 244 25 356 4 345 200 167 79 60 49 30 34 41 35 24 16 3 347 331 314 313 325 328 319 314 319 292 295 309 301 316 306 312 311 308 308 305 303 306 304 299 296 295 296 296
61 328 87 338 333 341 209 188 294 89 224 172 193 252 60 54 2 68 61 14 20 34 9 336 304 300 288 286 295 311 335 341 1 353 344 331 325 326 326 317 321 319 317 314 312 307 295 293 294 293 287 272 283 268
277 130 92 62 138 244 239 176 221 241 237 204 165 97 75 60 50 16 36 31 35 17 325 299 303 335 320 328 322 313 294 301 230 343 317 316 311 310 313 310 313 314 314 313 307 304 304 301 297 294 307 253 168 93
229 67 60 175 225 246 227 251 297 269 332 242 330 115 138 145 177 33 359 275 265 328 334 350 341 329 295 318 325 329 327 304 263 273 261 281 296 301 300 305 304 300 303 305 300 296 294 294 294 289 292 201 138 121
53 174 139 251 278 291 8 29 288 321 318 33 51 90 147 140 107 242 272 48 8 5 352 340 339 329 331 296 278 262 259 293 293 299 298 306 304 297 298 300 299 300 309 307 305 300 319 322 308 297 225 137 129 126
15 53 50 52 358 355 306 62 332 313 11 78 98 30 59 90 119 243 306 98 137 238 294 303 311 311 308 310 292 293 300 294 290 303 302 304 301 304 306 303 309 314 315 311 311 330 339 340 340 348 87 106 111 112